This is the latest recevied weather packets stored in our database for station/object W6DSP. If no packets are shown the sender has not sent any weather packets the latest 10 day(s).
| Time | Temp. | Humidity | Pressure | Rain* | Wind** | Luminosity | Snow |
|---|---|---|---|---|---|---|---|
| 1777605269 | 11.11° C | 71% | 1015.3 hPa | 0 mm | - | - | - |
| 1777604552 | 11.11° C | 69% | 1015.4 hPa | 0 mm | - | - | - |
| 1777603074 | 11.11° C | 71% | 1015.5 hPa | 0 mm | - | - | - |
| 1777602347 | 11.11° C | 74% | 1015.5 hPa | 0 mm | - | - | - |
| 1777601647 | 11.11° C | 75% | 1015.4 hPa | 0 mm | - | - | - |
| 1777587184 | 14.44° C | 54% | 1015.3 hPa | 0 mm | - | - | - |
| 1777584947 | 14.44° C | 51% | 1015.5 hPa | 0 mm | - | - | - |
| 1777584222 | 13.33° C | 57% | 1015.6 hPa | 0 mm | - | - | - |
| 1777582796 | 13.89° C | 57% | 1015.9 hPa | 0 mm | - | - | - |
| 1777579885 | 14.44° C | 55% | 1016.2 hPa | 0 mm | - | - | - |
| 1777579192 | 15° C | 56% | 1016.2 hPa | 0 mm | - | - | - |
| 1777577698 | 14.44° C | 54% | 1016.5 hPa | 0 mm | - | - | - |
| 1777576268 | 13.89° C | 51% | 1016.7 hPa | 0 mm | - | - | - |
| 1777574048 | 12.78° C | 48% | 1016.7 hPa | 0 mm | - | - | - |
| 1777572634 | 12.78° C | 49% | 1017.1 hPa | 0 mm | - | - | - |
| 1777571909 | 12.78° C | 48% | 1017 hPa | 0 mm | - | - | - |
| 1777571164 | 13.33° C | 51% | 1017.2 hPa | 0 mm | - | - | - |
| 1777568214 | 12.78° C | 56% | 1017.5 hPa | 0 mm | - | - | - |
| 1777567491 | 12.78° C | 55% | 1017.6 hPa | 0 mm | - | - | - |
| 1777566087 | 12.22° C | 57% | 1017.8 hPa | 0 mm | - | - | - |
| 1777565397 | 12.22° C | 56% | 1017.8 hPa | 0 mm | - | - | - |
| 1777564681 | 11.67° C | 63% | 1017.7 hPa | 0 mm | - | - | - |
| 1777563262 | 11.67° C | 65% | 1017.8 hPa | 0 mm | - | - | - |
| 1777561770 | 10.56° C | 74% | 1017.8 hPa | 0 mm | - | - | - |
| 1777559548 | 10° C | 72% | 1017.8 hPa | 0 mm | - | - | - |
* Rain latest hour (hover to see other rain measurements)
** Current wind speed in m/s (hover to see current wind gust speed)